Regional Weather Roundup
Issued by NWS

Home | Current Version | Previous Version | Text Only | Print | Product List | Glossary Off
Versions: 1 2 3 4 5 6 7 8 9 10 11 12 13 14 15 16 17 18 19 20 21 22 23 24 25 26 27 28 29 30 31 32 33 34 35 36 37 38 39 40 41 42 43 44 45 46 47 48 49 50

000
ASUS43 KMPX 030610
RWRMN
WEATHER ROUNDUP FOR MINNESOTA
NATIONAL WEATHER SERVICE TWIN CITIES/CHANHASSEN MN
100 AM CDT THU SEP 03 2015


NOTE: "FAIR" INDICATES FEW OR NO CLOUDS BELOW 12,000 FEET WITH NO
SIGNIFICANT WEATHER AND/OR OBSTRUCTIONS TO VISIBILITY. N/A MEANS
CURRENT SKY AND/OR WEATHER CONDITIONS ARE NOT AVAILABLE.

MNZ060>063-068>070-030700-
   Twin Cities Metro

CITY           SKY/WX    TMP DP  RH WIND       PRES   REMARKS
TWIN CITIES    MOCLDY    69  67  93 E6        29.91R
6HR MIN TEMP:  69; 6HR MAX TEMP:  77;

ST PAUL        FAIR      69  66  90 E6        29.91S
CRYSTAL        MOCLDY    71  66  84 E6        29.90S
BLAINE         FAIR      70  68  94 E5        29.91S
LAKEVILLE      MOCLDY    64  64 100 CALM      29.91R FOG
EDEN PRAIRIE   FAIR      71  68  90 E6        29.90R
6HR MIN TEMP:  71; 6HR MAX TEMP:  78;

SOUTH ST PAUL  FAIR      69  66  91 E3        29.91S
LAKE ELMO      MOCLDY    68  66  94 E6        29.93S
$$
MNZ001>005-007-008-013>017-022>024-027-028-030700-
   Northwest Minnesota

CITY           SKY/WX    TMP DP  RH WIND       PRES   REMARKS
BEMIDJI        FAIR      65  64  94 SE7       29.92S
HALLOCK        FAIR      72  66  83 SE12      29.79F
ROSEAU         FAIR      72  64  78 S9        29.86S
WARROAD        FAIR      66  63  88 S6        29.88S
THIEF RVR FALL FAIR      68  66  94 SE9       29.85F
CROOKSTON      FAIR      70  66  88 SE8       29.83S
FOSSTON        FAIR      66  61  82 SE9       29.88S
DETROIT LAKES  FAIR      68  64  88 SE14      29.89F
MOORHEAD       FAIR      72  68  88 SE9       29.82F
PARK RAPIDS    MOCLDY    70  65  84 SE10      29.91F
MAHNOMEN       FAIR      68  65  91 SE10      29.87S
$$
MNZ006-009>011-018-025>026-030700-
   North Central Minnesota

CITY           SKY/WX    TMP DP  RH WIND       PRES   REMARKS
BAUDETTE       FAIR      66  63  90 SE9       29.90S
FLAG ISLAND    FAIR      72  64  78 S14       29.87S
INTL FALLS     FAIR      64  62  93 SE5       29.93F
6HR MIN TEMP:  63; 6HR MAX TEMP:  78;

WASKISH        FAIR      64  63  94 CALM      29.91S
BIG FORK       FAIR      64  63  94 S3        29.96R
LONGVILLE      MOCLDY    61  61 100 CALM      29.94S FOG
GRAND RAPIDS     N/A     63  61  94 SE7       29.96S
CRANE LAKE     FAIR      54  54 100 CALM      29.98S
ORR            FAIR      63  61  94 CALM      29.95R
COOK           FAIR      59  57  94 CALM      29.98S
WALKER         FAIR      65  64  94 SE6       29.93S
$$
MNZ012-019>021-037-030700-
   Northeast Minnesota

CITY           SKY/WX    TMP DP  RH WIND       PRES   REMARKS
DULUTH         CLOUDY    63  62  97 E6        29.97S FOG
6HR MIN TEMP:  61; 6HR MAX TEMP:  69; 6HR PCP: TRACE;

ELY            FAIR      57  55  94 CALM      29.99S
HIBBING        FAIR      61  59  93 SE6       29.98R
EVELETH        FOG       57  57 100 CALM      29.99S VSB 1/4
DULUTH HARBOR  FOG       61  57  88 E10       29.97S VSB 1
TWO HARBORS    CLOUDY    64  61  88 NE3       29.96F HAZE
SILVER BAY     CLOUDY    63  61  94 CALM      29.97S FOG
GRAND MARAIS     N/A     56  54  93 CALM      29.98S
G MARAIS ARPRT FAIR      54  50  87 N5        30.03R
$$
MNZ029>031-032-039>041-046>048-054>057-064-030700-
   West Central Minnesota

CITY           SKY/WX    TMP DP  RH WIND       PRES   REMARKS
FERGUS FALLS   FAIR      72  70  94 SE12      29.85S
WHEATON        FAIR      68  66  94 E10       29.84F FOG
MORRIS         FAIR      72  70  94 SE10      29.85S FOG
ALEXANDRIA     CLOUDY    69  68  96 SE14G22   29.91S FOG
ELBOW LAKE     MOCLDY    70  69  97 SE10G17   29.86S FOG
WADENA         CLOUDY    68  66  94 SE9       29.91R
GLENWOOD       CLOUDY    70  68  94 E10       29.90S FOG
APPLETON       FAIR      72  68  88 E9        29.84S FOG
BENSON         FAIR      70  66  88 SE7       29.87S FOG
ORTONVILLE     MOCLDY    72  70  94 SE8       29.84S
MADISON          N/A     72  70  94 E8        29.84S FOG
WILLMAR        FAIR      70  70 100 E7        29.90R FOG
$$
MNZ033>034-036-042>043-049>051-058-059-030700-
   Central Minnesota

CITY           SKY/WX    TMP DP  RH WIND       PRES   REMARKS
ST CLOUD       CLOUDY    69  67  93 E7        29.91F
6HR MIN TEMP:  68; 6HR MAX TEMP:  74;

SAUK CENTRE    CLOUDY    67  66  95 E7        29.91S
PAYNESVILLE    CLOUDY    68  67  96 NE8       29.91S
AITKIN         CLOUDY    66  61  82 E5        29.94S HAZE
PINE RIVER     FAIR      63  63 100 E3        29.96S FOG
BRAINERD       FAIR      66  65  96 VRB5      29.93S
STAPLES        MOCLDY    68  64  88 SE5       29.92S
LONG PRAIRIE   CLOUDY    66  64  94 E6        29.92S
LITTLE FALLS   CLOUDY    68  64  88 CALM      29.92S
LITCHFIELD     CLOUDY    70  70 100 E6        29.91S FOG
BUFFALO        MOCLDY    68  65  91 E6        29.92R
MAPLE LAKE     FAIR      68  67  96 E6        29.92S
$$
MNZ037-044-045-052-053-030700-
   East Central Minnesota

CITY           SKY/WX    TMP DP  RH WIND       PRES   REMARKS
PRINCETON      FAIR      70  66  88 E3        29.92S
MORA           FAIR      64  64 100 CALM      29.96S
CAMBRIDGE      FAIR      70  61  73 CALM      29.91S
RUSH CITY      MOCLDY    66  64  94 NE3       29.94S
MOOSE LAKE     FOG       61  61 100 CALM      29.95S VSB 1/2
HINCKLEY       FAIR      64  64 100 CALM      29.94S
CLOQUET        FOG       63  61  94 E7        29.98R VSB 1/4
MCGREGOR       CLOUDY    63  63 100 E6        29.96S
$$
MNZ071>073-080-081-089-090-097-098-030700-
   Southwest Minnesota

CITY           SKY/WX    TMP DP  RH WIND       PRES   REMARKS
MONTEVIDEO     FAIR      70  70 100 SE7       29.87F FOG
GRANITE FALLS  FAIR      71  70  98 E6        29.87F FOG
CANBY          FAIR      70  68  95 SE5       29.85S FOG
MARSHALL       FAIR      72  66  83 SE7       29.87S
REDWOOD FALLS  FAIR      72  70  93 E5        29.87R FOG
OLIVIA         FAIR      68  64  88 E6        29.87S FOG
PIPESTONE      FAIR      72  70  94 SE6       29.87F
WINDOM         FAIR      73  70  88 CALM      29.89S
WORTHINGTON    FAIR      70  66  88 SE5       29.88F
JACKSON        FAIR      72  70  94 S6        29.89F
TRACY          FAIR      70  69  97 SE5       29.87F FOG
SLAYTON        FAIR      69  69 100 CALM      29.89S FOG
$$
MNZ065>067-074>077-082>085-091>093-030700-
   South Central Minnesota

CITY           SKY/WX    TMP DP  RH WIND       PRES   REMARKS
MANKATO        FAIR      72  70  94 SE6       29.89S
NEW ULM        FAIR      72  72 100 SE3       29.88S
ST JAMES       FAIR      70  70 100 SE5       29.89S
FAIRMONT       FAIR      70  63  78 S3        29.89S
GLENCOE        FAIR      70  69  98 CALM      29.89F FOG
FARIBAULT      FOG       68  66  94 CALM      29.91R VSB<1/4
OWATONNA       FAIR      72  70  94 SE7       29.91S
WASECA         FAIR      68  64  88 CALM      29.91S FOG
ALBERT LEA     FAIR      73  70  88 S3        29.91S
$$
MNZ078>079-086>088-094>096-030700-
   Southeast Minnesota

CITY           SKY/WX    TMP DP  RH WIND       PRES   REMARKS
ROCHESTER      FAIR      69  67  93 SE7       29.93S
6HR MIN TEMP:  69; 6HR MAX TEMP:  78; 6HR PCP: TRACE;

RED WING       FAIR      70  66  88 E5        29.90S
STANTON        FAIR      69  66  92 CALM      29.90R FOG
DODGE CENTER   FAIR      70  66  88 S5        29.92S
WINONA         FAIR      73  70  88 CALM      29.91S
AUSTIN         FAIR      72  70  94 CALM      29.92S
PRESTON        FAIR      69  67  91 S5        29.94S
$$
ABBREVIATIONS USED IN REMARKS
   TC - TEMPERATURES IN CELSIUS
  WCI - WIND CHILL INDEX
   HX - HEAT INDEX
  VSB - VISIBILITY
$$



USA.gov is the U.S. government's official web portal to all federal, state and local government web resources and services.